📊 Raw Sensor Data
Showing records 44776 to 44800 of 85,042 total
| ID | Distance (ft) | Battery V | Battery A | Int Temp (°F) | Int Humid (%) | Ext Temp (°F) | Solar V | RSSI | SNR | Time Stamp |
|---|---|---|---|---|---|---|---|---|---|---|
| 40279 | -- | 3.95 | 0 | 64 | 41 | 67 | 5.10 | -70 | 9 | 05/11/2025 08:00 AM |
| 40278 | 16.6 | 3.95 | 5 | 62 | 41 | 68 | 5.10 | -67 | 8 | 05/11/2025 07:45 AM |
| 40277 | 16.4 | 4.05 | 56 | 61 | 41 | 69 | 4.50 | -68 | 8 | 05/11/2025 07:30 AM |
| 40276 | 16.4 | 4.03 | 11 | 58 | 41 | 66 | 4.50 | -67 | 8 | 05/11/2025 07:15 AM |
| 40275 | 16.4 | 3.98 | -5 | 57 | 41 | 57 | 4.50 | -68 | 8 | 05/11/2025 07:00 AM |
| 40274 | 16.4 | 3.96 | 0 | 55 | 41 | 62 | 4.50 | -68 | 8 | 05/11/2025 06:45 AM |
| 40273 | 16.3 | 3.89 | 0 | 53 | 42 | 59 | 4.50 | -68 | 8 | 05/11/2025 06:30 AM |
| 40272 | 16.2 | 3.89 | -31 | 52 | 42 | 55 | 4.50 | -67 | 7 | 05/11/2025 06:15 AM |
| 40271 | 16.2 | 3.87 | -10 | 51 | 42 | 54 | 3.20 | -67 | 8 | 05/11/2025 06:00 AM |
| 40270 | 16.2 | 3.88 | -5 | 51 | 43 | 53 | 1.00 | -68 | 8 | 05/11/2025 05:45 AM |
| 40269 | 16.2 | 3.89 | -5 | 52 | 43 | 54 | 0.00 | -67 | 8 | 05/11/2025 05:30 AM |
| 40268 | 16.3 | 3.88 | -5 | 53 | 43 | 54 | 0.00 | -67 | 8 | 05/11/2025 05:15 AM |
| 40267 | 16.2 | 3.94 | -5 | 53 | 43 | 55 | 0.00 | -68 | 8 | 05/11/2025 05:00 AM |
| 40266 | 16.2 | 3.89 | -5 | 54 | 43 | 55 | 0.10 | -67 | 8 | 05/11/2025 04:45 AM |
| 40265 | 16.2 | 3.95 | -5 | 54 | 43 | 56 | 0.10 | -69 | 8 | 05/11/2025 04:30 AM |
| 40264 | 16.2 | 3.89 | -5 | 54 | 43 | 55 | 0.00 | -67 | 8 | 05/11/2025 04:15 AM |
| 40263 | 16.2 | 3.89 | -5 | 55 | 43 | 56 | 0.00 | -67 | 8 | 05/11/2025 04:00 AM |
| 40262 | 16.3 | 3.95 | -5 | 56 | 43 | 57 | 0.00 | -69 | 8 | 05/11/2025 03:45 AM |
| 40261 | 16.3 | 3.89 | -5 | 56 | 43 | 57 | 0.00 | -68 | 8 | 05/11/2025 03:30 AM |
| 40260 | 16.2 | 3.89 | -5 | 57 | 43 | 59 | 0.00 | -68 | 8 | 05/11/2025 03:15 AM |
| 40259 | 16.2 | 3.95 | -5 | 57 | 43 | 58 | 0.00 | -69 | 8 | 05/11/2025 03:00 AM |
| 40258 | 16.2 | 3.89 | -5 | 57 | 43 | 58 | 0.00 | -68 | 8 | 05/11/2025 02:45 AM |
| 40257 | 16.2 | 3.95 | -5 | 58 | 43 | 59 | 0.10 | -69 | 8 | 05/11/2025 02:30 AM |
| 40256 | 16.3 | 3.89 | -5 | 58 | 43 | 59 | 0.00 | -68 | 8 | 05/11/2025 02:15 AM |
| 40255 | 16.2 | 3.89 | -5 | 58 | 43 | 60 | 0.00 | -70 | 8 | 05/11/2025 02:00 AM |